This is the latest recevied weather packets stored in our database for station/object KY0TEQ-13. If no packets are shown the sender has not sent any weather packets the latest 10 day(s).
| Time | Temp. | Humidity | Pressure | Rain* | Wind** | Luminosity | Snow |
|---|---|---|---|---|---|---|---|
| 1788252142 | 12.22° C | 79% | 1310.7 hPa | 0 mm | - | 0 W/m² | - |
| 1788251837 | 12.22° C | 77% | 1310.7 hPa | 0 mm | - | 0 W/m² | - |
| 1788251536 | 12.78° C | 75% | 1310.6 hPa | 0 mm | - | 0 W/m² | - |
| 1788251235 | 12.78° C | 75% | 1310.6 hPa | 0 mm | - | 0 W/m² | - |
| 1788250931 | 12.78° C | 76% | 1310.6 hPa | 0 mm | - | 0 W/m² | - |
| 1788250626 | 12.22° C | 76% | 1310.6 hPa | 0 mm | - | 0 W/m² | - |
| 1788250326 | 12.22° C | 78% | 1310.6 hPa | 0 mm | - | 0 W/m² | - |
| 1788250021 | 12.22° C | 80% | 1310.8 hPa | 0 mm | - | 0 W/m² | - |
| 1788249720 | 12.22° C | 79% | 1311 hPa | 0 mm | - | 0 W/m² | - |
| 1788249415 | 11.67° C | 80% | 1310.6 hPa | 0 mm | - | 0 W/m² | - |
| 1788249114 | 12.22° C | 80% | 1311.1 hPa | 0 mm | - | 0 W/m² | - |
| 1788248814 | 12.22° C | 80% | 1311 hPa | 0 mm | - | 0 W/m² | - |
| 1788248509 | 12.22° C | 77% | 1310.8 hPa | 0 mm | - | 0 W/m² | - |
| 1788248206 | 12.78° C | 76% | 1311 hPa | 0 mm | - | 0 W/m² | - |
| 1788247901 | 12.22° C | 77% | 1310.8 hPa | 0 mm | - | 0 W/m² | - |
| 1788247596 | 11.67° C | 80% | 1310.6 hPa | 0 mm | - | 0 W/m² | - |
| 1788247291 | 12.22° C | 79% | 1310.6 hPa | 0 mm | - | 0 W/m² | - |
| 1788246986 | 12.22° C | 78% | 1310.7 hPa | 0 mm | - | 0 W/m² | - |
| 1788246684 | 11.67° C | 80% | 1311 hPa | 0 mm | - | 0 W/m² | - |
| 1788246379 | 12.22° C | 79% | 1311 hPa | 0 mm | - | 0 W/m² | - |
| 1788246075 | 12.22° C | 79% | 1311 hPa | 0 mm | - | 0 W/m² | - |
| 1788245769 | 11.67° C | 79% | 1311 hPa | 0 mm | - | 0 W/m² | - |
| 1788245468 | 11.67° C | 80% | 1311.1 hPa | 0 mm | - | 0 W/m² | - |
| 1788245166 | 11.67° C | 80% | 1311.1 hPa | 0 mm | - | 0 W/m² | - |
| 1788244862 | 11.67° C | 79% | 1311.2 hPa | 0 mm | - | 0 W/m² | - |
* Rain latest hour (hover to see other rain measurements)
** Current wind speed in m/s (hover to see current wind gust speed)